Gastonia, NC

8:55 AM EST on January 17, 2020 (GMT -0500)
Gastonia Municipal

Weather History for KAKH - November, 2019

Change the Weather History Date:

Thursday, November 7, 2019

  Actual Average (KCLT) Record (KCLT)
Temperature  
Mean Temperature 56 °F -  
Max Temperature 69 °F 62 °F 78 °F (1888)
Min Temperature 44 °F 40 °F 26 °F (1998)
Degree Days  
Heating Degree Days 8    
Growing Degree Days 6 (Base 50)    
Moisture  
Dew Point 50 °F    
Average Humidity 77    
Maximum Humidity 90    
Minimum Humidity 54    
Precipitation  
Precipitation 0.16 in - - ()
Sea Level Pressure  
Sea Level Pressure 30.17 in    
Wind  
Wind Speed 2 mph ()    
Max Wind Speed 9 mph    
Max Gust Speed 16 mph    
Visibility 7.8 miles    
Events Rain    
Averages and records for this station are not official NWS values.
T = Trace of Precipitation, MM = Missing Value Source: Averaged Metar Reports

Daily Weather History Graph

Daily Weather History Graph

Search for Another Location

Airport or City:

Astronomy

Nov. 07, 2019 Rise Set
Actual Time 6:51 AM EST 5:24 PM EST
Civil Twilight 6:24 AM EST 5:51 PM EST
Nautical Twilight 5:54 AM EST 6:21 PM EST
Astronomical Twilight 5:24 AM EST 6:51 PM EST
Moon 3:19 PM EST (11/7) 2:06 AM EST (11/7)
Length of Visible Light 11h 26m
Length of Day
10h 33m
Waxing Gibbous, 79% of the Moon is Illuminated
Nov 7
Waxing Gibbous
Nov 12
Full
Nov 19
Last Quarter
Nov 26
New
Dec 4
First Quarter

Hourly Weather History & Observations

Time (EST) Temp. Windchill Dew Point Humidity Pressure Visibility Wind Dir Wind Speed Gust Speed Precip Events Conditions
12:54 AM 46.0 °F - 41.0 °F 83% 30.32 in 10.0 mi Calm Calm - N/A   Mostly Cloudy
1:54 AM 46.0 °F - 41.0 °F 83% 30.31 in 10.0 mi Calm Calm - N/A   Clear
2:54 AM 45.0 °F - 39.9 °F 82% 30.30 in 9.0 mi Calm Calm - N/A   Clear
3:54 AM 44.1 °F - 39.9 °F 85% 30.30 in 10.0 mi Calm Calm - N/A   Clear
4:54 AM 45.0 °F 43.5 °F 39.9 °F 82% 30.30 in 10.0 mi North 3.5 mph - N/A   Clear
5:54 AM 44.1 °F - 39.0 °F 82% 30.29 in 10.0 mi Calm Calm - N/A   Clear
6:54 AM 45.0 °F - 41.0 °F 86% 30.30 in 8.0 mi Calm Calm - N/A   Clear
7:54 AM 48.0 °F - 43.0 °F 83% 30.29 in 9.0 mi Calm Calm - N/A   Clear
8:54 AM 54.0 °F - 46.9 °F 77% 30.28 in 9.0 mi Calm Calm - N/A   Mostly Cloudy
9:30 AM 57.0 °F - 48.9 °F 74% 30.27 in 9.0 mi South 3.5 mph - N/A   Scattered Clouds
9:54 AM 59.0 °F - 50.0 °F 72% 30.27 in 10.0 mi South 5.8 mph - N/A   Scattered Clouds
10:54 AM 63.0 °F - 51.1 °F 65% 30.24 in 10.0 mi SW 5.8 mph - N/A   Clear
11:54 AM 66.9 °F - 52.0 °F 59% 30.20 in 10.0 mi Variable 4.6 mph - N/A   Clear
12:54 PM 69.1 °F - 52.0 °F 54% 30.16 in 10.0 mi SW 6.9 mph - N/A   Mostly Cloudy
1:54 PM 69.1 °F - 52.0 °F 54% 30.13 in 10.0 mi Variable 5.8 mph - N/A   Mostly Cloudy
2:54 PM 69.1 °F - 53.1 °F 57% 30.11 in 10.0 mi SSW 9.2 mph 16.1 mph N/A   Overcast
4:54 PM 66.9 °F - 54.0 °F 63% 30.09 in 10.0 mi SW 3.5 mph - N/A   Partly Cloudy
5:54 PM 64.0 °F - 55.0 °F 73% 30.08 in 10.0 mi Calm Calm - N/A   Clear
6:35 PM 63.0 °F - 55.0 °F 75% 30.09 in 10.0 mi Calm Calm - N/A   Mostly Cloudy
6:54 PM 63.0 °F - 55.0 °F 75% 30.09 in 10.0 mi Calm Calm - N/A   Overcast
7:04 PM 64.0 °F - 55.0 °F 73% 30.09 in 10.0 mi Calm Calm - N/A   Overcast
7:54 PM 62.1 °F - 55.9 °F 80% 30.09 in 2.0 mi NNW 3.5 mph - 0.06 in Rain Heavy Rain
8:01 PM 61.0 °F - 55.9 °F 83% 30.09 in 2.0 mi North 3.5 mph - 0.05 in Rain Heavy Rain
8:15 PM 61.0 °F - 57.0 °F 87% 30.08 in 4.0 mi Calm Calm - 0.08 in Rain Rain
10:04 PM 60.1 °F - 57.0 °F 90% 30.09 in 3.0 mi Calm Calm - 0.01 in Rain Light Rain
10:12 PM 60.1 °F - 57.0 °F 90% 30.09 in 2.0 mi Calm Calm - 0.01 in Rain Light Rain
10:23 PM 60.1 °F - 57.0 °F 90% 30.09 in 1.0 mi Calm Calm - 0.02 in Rain Light Rain
10:45 PM 60.1 °F - 55.9 °F 86% 30.08 in 2.0 mi Variable 3.5 mph - 0.05 in Rain Light Rain
10:54 PM 60.1 °F - 55.0 °F 83% 30.07 in 5.0 mi Calm Calm - 0.06 in Rain Light Rain
11:54 PM 57.9 °F - 53.1 °F 84% 30.05 in 8.0 mi North 4.6 mph - 0.04 in Rain Light Rain